TimeCST,TemperatureF,Dew PointF,Humidity,Sea Level PressureIn,VisibilityMPH,Wind Direction,Wind SpeedMPH,Gust SpeedMPH,PrecipitationIn,Events,Conditions,WindDirDegrees,DateUTC
12:00 AM,66.2,62.6,88,30.04,-9999.0,East,4.6,-,N/A,,Clear,80,2013-09-05 06:00:00
1:00 AM,66.2,62.6,88,30.02,-9999.0,East,4.6,-,N/A,,Clear,80,2013-09-05 07:00:00
2:00 AM,66.2,60.8,83,30.01,-9999.0,NE,6.9,-,N/A,,Clear,40,2013-09-05 08:00:00
3:00 AM,65,61,82,29.85,12,NNE,6.9,,,,Clear,20,2013-09-05 09:00:00
3:00 AM,66.2,60.8,83,30.01,-9999.0,NNE,6.9,-,N/A,,Clear,20,2013-09-05 09:00:00
4:00 AM,64.4,60.8,88,30.01,-9999.0,NE,2.3,-,N/A,,Clear,40,2013-09-05 10:00:00
5:00 AM,62.6,60.8,94,30.02,-9999.0,NE,4.6,-,N/A,,Clear,50,2013-09-05 11:00:00
6:00 AM,65,60,81,29.88,12,NE,4.6,,,,Clear,50,2013-09-05 12:00:00
6:00 AM,64.4,60.8,88,30.02,-9999.0,NE,4.6,-,N/A,,Clear,50,2013-09-05 12:00:00
7:00 AM,71.6,62.6,73,30.03,-9999.0,NE,6.9,-,N/A,,Clear,40,2013-09-05 13:00:00
8:00 AM,77.0,60.8,57,30.04,-9999.0,ESE,5.8,-,N/A,,Clear,110,2013-09-05 14:00:00
9:00 AM,77,66,62,29.85,12,WSW,9.2,,,,Scattered Clouds,240,2013-09-05 15:00:00
9:00 AM,77.0,66.2,69,30.05,6.2,WSW,9.2,-,N/A,,Mostly Cloudy,240,2013-09-05 15:00:00
10:00 AM,77.0,66.2,69,30.05,6.2,West,12.7,-,N/A,,Scattered Clouds,260,2013-09-05 16:00:00
11:00 AM,78.8,68.0,69,30.04,6.2,WSW,9.2,-,N/A,,Scattered Clouds,240,2013-09-05 17:00:00
12:00 PM,80,67,57,29.85,12,WSW,8.1,,,,Partly Cloudy,250,2013-09-05 18:00:00
12:00 PM,80.6,68.0,65,30.01,6.2,WSW,8.1,-,N/A,,Scattered Clouds,250,2013-09-05 18:00:00
1:00 PM,77.0,66.2,69,30.00,6.2,WSW,8.1,-,N/A,,Mostly Cloudy,240,2013-09-05 19:00:00
2:00 PM,77.0,68.0,74,29.98,6.2,WSW,9.2,-,N/A,Rain,Light Rain,250,2013-09-05 20:00:00
3:00 PM,75,69,76,29.81,12,WSW,10.4,,,,Overcast,240,2013-09-05 21:00:00
3:00 PM,75.2,69.8,83,29.96,6.2,WSW,10.4,-,N/A,,Mostly Cloudy,240,2013-09-05 21:00:00
3:34 PM,71.6,69.8,94,29.98,0.9,SW,9.2,-,N/A,Rain-Thunderstorm,Light Thunderstorms and Rain,220,2013-09-05 21:34:00
3:44 PM,69.8,68.0,94,30.00,0.6,SW,9.2,-,N/A,Rain-Thunderstorm,Thunderstorms and Rain,220,2013-09-05 21:44:00
4:00 PM,69.8,68.0,94,30.01,0.6,WSW,8.1,-,N/A,Rain-Thunderstorm,Thunderstorms and Rain,240,2013-09-05 22:00:00
4:27 PM,68.0,66.2,94,30.02,0.9,SW,6.9,-,N/A,Rain-Thunderstorm,Light Thunderstorms and Rain,230,2013-09-05 22:27:00
4:45 PM,68.0,68.0,100,-9999,1.9,WNW,4.6,-,N/A,Rain,Light Rain,300,2013-09-05 22:45:00
5:00 PM,68.0,68.0,100,-9999,3.1,West,4.6,-,N/A,Rain,Light Rain,270,2013-09-05 23:00:00
6:00 PM,68,68,99,29.89,,NW,2.3,,,,Mist,320,2013-09-06 00:00:00
6:00 PM,68.0,68.0,100,30.04,3.1,NW,2.3,-,N/A,,Overcast,320,2013-09-06 00:00:00
7:00 PM,68.0,68.0,100,30.06,5.0,WNW,4.6,-,N/A,Fog,Fog,300,2013-09-06 01:00:00
8:00 PM,68.0,66.2,94,30.07,5.0,West,2.3,-,N/A,Fog,Fog,280,2013-09-06 02:00:00
9:00 PM,68,67,94,29.91,9,ENE,3.5,,,,Scattered Clouds,60,2013-09-06 03:00:00
9:00 PM,68.0,66.2,94,30.07,6.2,ENE,3.5,-,N/A,,Scattered Clouds,60,2013-09-06 03:00:00
10:00 PM,68.0,66.2,94,30.08,6.2,ENE,3.5,-,N/A,,Scattered Clouds,70,2013-09-06 04:00:00
11:00 PM,68.0,66.2,94,30.08,6.2,WSW,3.5,-,N/A,Fog,Patches of Fog,250,2013-09-06 05:00:00